Home > Weather > Grande Prairie > Past weeks

Flag for Canada Past Weather in Grande Prairie, Alberta, Canada — Yesterday and Last 2 Weeks

Now
55 °F

Passing clouds.


Feels Like: 53 °F
Forecast: 49 / 69 °F
Wind: 8 mph from Northwest

Location: Grande Prairie

Current Time: Aug 25, 2016 at 2:17:44 AM

Latest Report: Aug 25, 2016 at 1:00 AM


Visibility: 25 mi

Pressure: 30.34 "Hg (28.05 "Hg at 657m altitude)

Humidity: 77%

Dew Point: 48 °F

Location of Grande PrairieLocation

Past Weather in Grande Prairie — Graph

°F

Grande Prairie Temperature Yesterday

Maximum temperature yesterday: 73 °F (at 6:00 PM)
Minimum temperature yesterday: 48 °F (at 5:00 AM)
Average temperature yesterday: 59 °F

High & Low Weather Summary for the Past Weeks

 TemperatureHumidityPressure
High81 °F (Aug 15, 5:00 PM)94% (Aug 10, 1:00 AM)30.41 "Hg (Aug 10, 1:00 AM)
Low45 °F (Aug 17, 7:00 AM)31% (Aug 16, 7:00 PM)29.65 "Hg (Aug 21, 4:00 PM)
Average63 °F68%30.03 "Hg
* Reported Aug 10 1:00 AM — Aug 25 1:00 AM, Grande Prairie, Weather by CustomWeather, © 2016

Note: Actual official high and low records may vary slightly from our data, if they occured in-between our weather recording intervals... More about our weather records

Advertising

Grande Prairie Weather History for the Previous 24 Hours

Scroll right to see more
 ConditionsComfort  
Time TempWeatherWind HumidityBarometerVisibility
1:00 AM
Thu, Aug 25
55 °FPassing clouds.8 mph77%30.34 "Hg25 mi
12:00 AM57 °FPassing clouds.12 mph77%30.33 "Hg25 mi
11:00 PM
Wed, Aug 24
57 °FPartly cloudy.9 mph77%30.33 "Hg25 mi
10:00 PM59 °FPartly sunny.7 mph72%30.32 "Hg25 mi
9:00 PM63 °FBroken clouds.3 mph64%30.31 "Hg25 mi
8:00 PM68 °FScattered clouds.8 mph53%30.30 "Hg25 mi
7:00 PM72 °FBroken clouds.8 mph47%30.29 "Hg25 mi
6:00 PM73 °FBroken clouds.14 mph47%30.29 "Hg25 mi
5:00 PM72 °FBroken clouds.7 mph53%30.29 "Hg25 mi
4:00 PM72 °FPartly sunny.8 mph57%30.30 "Hg25 mi
3:00 PM68 °FPartly sunny.6 mph56%30.31 "Hg25 mi
2:00 PM66 °FPartly sunny.5 mph64%30.32 "Hg25 mi
1:00 PM64 °FBroken clouds.7 mph64%30.33 "Hg25 mi
12:00 PM61 °FBroken clouds.2 mph72%30.33 "Hg25 mi
11:00 AM59 °FPartly sunny.6 mph72%30.34 "Hg25 mi
10:00 AM57 °FPartly sunny.8 mph82%30.33 "Hg25 mi
9:00 AM55 °FPartly sunny.3 mph82%30.33 "Hg25 mi
8:00 AM50 °FPartly sunny.6 mph94%30.33 "Hg25 mi
7:00 AM48 °FPartly cloudy.3 mph94%30.32 "Hg25 mi
6:00 AM50 °FPartly cloudy.2 mph88%30.32 "Hg25 mi
5:00 AM48 °FPassing clouds.2 mph94%30.31 "Hg25 mi
4:00 AM50 °FPassing clouds.No wind94%30.30 "Hg25 mi
3:00 AM50 °FClear.3 mph94%30.30 "Hg25 mi
2:00 AM50 °FClear.2 mph94%30.29 "Hg25 mi
Weather by CustomWeather, © 2016

See weather overviewHow to use our weather pages